GW2918 Weather Reports


time (UTC)temp
C
wind
direction
speed
KPH
gust
KPH
rain 1hr
cm
rain 24hr
cm
rain mn
cm
humidity
%
barometer
mb
20260510073131 9 265 0.0 4.8 0.00 0.05 0.05 97 1010.0
20260510072130 9 8 3.2 3.2 0.00 0.05 0.05 98 1009.9
20260510071130 9 10 3.2 3.2 0.00 0.05 0.05 98 1009.7
20260510070124 9 298 0.0 6.4 0.00 0.05 0.05 96 1009.7
20260510065122 9 41 3.2 4.8 0.00 0.05 0.05 97 1009.8
20260510064121 9 2 3.2 4.8 0.00 0.05 0.05 97 1010.1
20260510063120 9 225 1.6 4.8 0.00 0.05 0.05 97 1009.9
20260510062118 9 21 1.6 4.8 0.00 0.05 0.05 98 1010.3
20260510061117 9 47 3.2 4.8 0.00 0.05 0.05 99 1010.3
20260510060116 9 20 0.0 4.8 0.00 0.05 0.05 99 1010.4
20260510055116 9 91 3.2 4.8 0.00 0.05 0.05 99 1010.6
20260510054112 9 54 4.8 6.4 0.00 0.05 0.05 99 1010.7
20260510053109 9 314 0.0 4.8 0.05 0.05 0.05 99 1011.2
20260510052108 9 359 1.6 4.8 0.00 0.03 0.03 98 1011.4
20260510051106 9 4 0.0 4.8 0.00 0.03 0.03 99 1011.4
20260510050106 10 292 3.2 4.8 0.00 0.03 0.03 99 1011.5
20260510045105 10 333 4.8 6.4 0.00 0.03 0.03 98 1011.4
20260510044104 10 4 3.2 8.0 0.18 0.03 0.03 98 1011.4
20260510043102 10 199 3.2 11.3 0.00 0.00 0.00 98 1011.8
20260510042102 10 308 3.2 6.4 0.00 0.00 0.00 99 1011.6
20260510041102 10 305 3.2 8.0 0.00 0.00 0.00 99 1010.8
20260510035057 10 215 12.9 14.5 0.00 0.89 0.89 99 1010.5
20260510034052 10 212 6.4 11.3 0.00 0.89 0.89 99 1010.3
20260510033052 10 298 6.4 9.7 0.00 0.89 0.89 99 1010.0
20260510032050 10 265 3.2 8.0 0.00 0.89 0.89 99 1010.0
20260510031046 10 244 4.8 14.5 0.00 0.89 0.89 98 1009.8
20260510030045 10 314 1.6 16.1 0.00 0.89 0.89 98 1009.7
20260510025045 10 188 3.2 12.9 0.00 0.89 0.89 98 1009.2
20260510024044 10 251 6.4 9.7 0.00 0.89 0.89 98 1009.5
20260510023044 10 238 4.8 17.7 0.00 0.89 0.89 97 1009.6
20260510022043 10 180 1.6 6.4 0.00 0.89 0.89 97 1009.5
20260510021044 10 261 3.2 11.3 0.00 0.89 0.89 97 1009.5
20260510020040 10 233 4.8 9.7 0.00 0.89 0.89 98 1009.3
20260510015037 10 192 4.8 8.0 0.00 0.89 0.89 98 1009.4
20260510014037 10 161 1.6 12.9 0.00 0.89 0.89 98 1009.3
20260510013033 10 358 3.2 16.1 0.00 0.89 0.89 99 1009.2
20260510012030 10 9 3.2 9.7 0.00 0.89 0.89 99 1009.2
20260510011026 10 298 1.6 6.4 0.00 0.89 0.89 99 1009.0
20260510010026 10 213 6.4 6.4 0.00 0.89 0.89 99 1009.0
20260510005025 10 16 3.2 9.7 0.00 0.89 0.89 99 1009.1
20260510004020 10 84 3.2 8.0 0.00 0.89 0.89 99 1008.9
20260510003018 10 207 3.2 8.0 0.00 0.89 0.89 98 1008.7
20260510002017 10 297 3.2 8.0 0.00 0.89 0.89 98 1008.6
20260510001012 10 39 0.0 6.4 0.00 0.89 0.89 98 1008.5
20260510000009 10 112 4.8 6.4 0.00 0.89 0.89 98 1008.3
20260509235009 10 142 4.8 6.4 0.00 0.89 0.89 98 1008.5
20260509234003 10 244 3.2 11.3 0.00 0.89 0.89 97 1008.6
20260509233002 10 259 3.2 9.7 0.00 0.89 0.89 97 1008.7
20260509232002 10 256 4.8 9.7 0.00 0.89 0.89 96 1008.3
20260509230956 11 206 4.8 11.3 0.00 0.89 0.89 95 1007.9
20260509225955 11 215 1.6 14.5 0.00 0.89 0.89 95 1008.0
20260509224953 11 155 3.2 8.0 0.00 0.89 0.89 96 1008.3
20260509223952 11 141 3.2 8.0 0.00 0.89 0.89 96 1008.1
20260509222952 11 157 3.2 6.4 0.00 0.89 0.89 95 1008.1
20260509221949 11 217 3.2 11.3 0.00 0.89 0.89 95 1008.6
20260509220946 11 211 3.2 9.7 0.00 0.89 0.89 95 1008.6
20260509215945 11 112 3.2 9.7 0.00 0.89 0.89 95 1008.6
20260509214944 11 218 6.4 9.7 0.00 0.89 0.89 96 1008.5
20260509213943 11 173 3.2 9.7 0.00 0.89 0.89 95 1008.4
20260509212942 11 183 3.2 9.7 0.00 0.89 0.89 95 1008.6
20260509211941 11 201 4.8 12.9 0.00 0.89 0.89 96 1008.8
20260509210939 11 225 4.8 8.0 0.00 0.89 0.89 97 1008.9
20260509205938 10 32 3.2 8.0 0.00 0.89 0.89 98 1008.8
20260509204935 10 258 3.2 9.7 0.00 0.89 0.89 98 1008.8
20260509203934 10 180 3.2 17.7 0.00 0.89 0.89 98 1008.8
20260509202932 10 163 3.2 17.7 0.00 0.89 0.89 99 1008.9
20260509201930 10 208 4.8 19.3 0.00 0.89 0.89 99 1008.8
20260509200928 10 214 9.7 24.1 0.00 0.89 0.89 99 1008.8
20260509195925 10 221 9.7 17.7 0.00 0.89 0.89 99 1009.0
20260509194920 10 200 12.9 17.7 0.00 0.89 0.89 99 1008.9
20260509193919 10 228 12.9 22.5 0.00 0.89 0.89 99 1009.1
20260509192915 10 111 3.2 20.9 0.13 0.89 0.89 99 1009.1
20260509191912 9 235 8.0 16.1 0.00 0.86 0.86 99 1009.3
20260509190910 9 224 4.8 17.7 0.18 0.86 0.86 99 1009.3
20260509185905 9 212 4.8 14.5 0.13 0.84 0.84 99 1009.5
20260509184904 9 201 9.7 17.7 0.00 0.81 0.81 99 1009.7
20260509183859 9 57 3.2 11.3 0.05 0.81 0.81 99 1009.5
20260509182855 9 138 1.6 8.0 0.05 0.79 0.79 99 1009.4
20260509181850 9 204 12.9 16.1 0.00 0.79 0.79 99 1009.5
20260509180850 9 150 8.0 25.7 0.05 0.79 0.79 99 1009.2
20260509175849 9 212 12.9 17.7 0.00 0.76 0.76 99 1009.2
20260509174847 9 170 6.4 9.7 0.00 0.76 0.76 99 1009.2
20260509173845 9 320 3.2 17.7 0.00 0.76 0.76 99 1009.2
20260509172843 9 168 9.7 16.1 0.05 0.76 0.76 99 1009.2
20260509171841 9 224 16.1 20.9 0.00 0.76 0.76 99 1009.2
20260509170839 8 212 9.7 25.7 0.23 0.76 0.76 99 1009.1
20260509165835 8 228 12.9 19.3 0.13 0.71 0.71 99 1009.4
20260509164832 8 222 11.3 20.9 0.05 0.69 0.69 99 1009.4
20260509163831 8 117 3.2 11.3 0.05 0.69 0.69 99 1009.5
20260509162827 8 205 9.7 9.7 0.05 0.66 0.66 99 1009.7
20260509161822 8 229 6.4 9.7 0.05 0.66 0.66 99 1009.5
20260509160820 8 213 3.2 14.5 0.05 0.66 0.66 99 1009.5
20260509155817 8 204 4.8 16.1 0.00 0.64 0.64 99 1009.7
20260509154816 8 89 4.8 6.4 0.05 0.64 0.64 99 1009.6
20260509153816 8 240 4.8 8.0 0.00 0.64 0.64 99 1009.8
20260509152815 8 133 3.2 4.8 0.05 0.64 0.64 99 1009.8
20260509151815 8 173 3.2 6.4 0.05 0.61 0.61 99 1009.9
20260509150809 8 99 3.2 9.7 0.05 0.61 0.61 99 1009.8
20260509145809 8 240 3.2 6.4 0.05 0.58 0.58 99 1009.7
20260509144806 8 326 1.6 8.0 0.05 0.58 0.58 99 1010.0
20260509143800 8 147 3.2 9.7 0.05 0.56 0.56 99 1010.1
20260509142759 8 24 3.2 4.8 0.05 0.56 0.56 99 1010.3
20260509141756 8 127 3.2 9.7 0.05 0.56 0.56 99 1010.4
20260509140756 8 218 8.0 11.3 0.05 0.53 0.53 99 1010.4
20260509135751 8 247 4.8 16.1 0.05 0.53 0.53 99 1010.5
20260509134751 8 254 6.4 8.0 0.13 0.51 0.51 99 1010.4
20260509133746 8 206 9.7 11.3 0.05 0.51 0.51 99 1010.5
20260509132741 8 318 1.6 6.4 0.05 0.48 0.48 99 1010.4
20260509131736 8 328 1.6 4.8 0.00 0.48 0.48 99 1010.1
20260509130734 8 22 1.6 6.4 0.05 0.48 0.48 99 1010.1
20260509125733 8 40 3.2 4.8 0.00 0.46 0.46 99 1010.0
20260509124732 8 50 3.2 4.8 0.05 0.46 0.46 99 1010.1
20260509123727 8 29 3.2 6.4 0.00 0.46 0.46 99 1010.3
20260509122725 8 14 3.2 6.4 0.00 0.46 0.46 99 1010.4
20260509121724 7 33 4.8 6.4 0.05 0.46 0.46 99 1010.6
20260509120720 7 354 0.0 4.8 0.00 0.46 0.46 99 1010.5
20260509115721 7 17 1.6 4.8 0.00 0.46 0.46 99 1010.5
20260509114716 7 32 3.2 6.4 0.05 0.46 0.46 99 1010.8
20260509113713 7 347 3.2 4.8 0.00 0.43 0.43 99 1010.6
20260509112712 7 10 3.2 6.4 0.00 0.43 0.43 99 1010.7
20260509111712 7 10 4.8 4.8 0.00 0.43 0.43 99 1010.7
20260509110712 7 88 3.2 6.4 0.00 0.43 0.43 99 1010.5
20260509105707 7 34 1.6 6.4 0.00 0.43 0.43 99 1010.7
20260509104707 7 18 4.8 6.4 0.00 0.43 0.43 99 1010.5
20260509103701 7 11 1.6 4.8 0.00 0.43 0.43 99 1010.6
20260509102657 7 44 3.2 4.8 0.00 0.43 0.43 99 1010.7
20260509101655 7 4 3.2 6.4 0.00 0.43 0.43 99 1010.7
20260509100650 7 12 4.8 6.4 0.05 0.43 0.43 99 1010.7
20260509095649 7 7 4.8 6.4 0.05 0.43 0.43 99 1010.7
20260509094648 7 23 4.8 6.4 0.00 0.43 0.43 99 1010.4
20260509093644 7 63 3.2 4.8 0.00 0.43 0.43 99 1010.7
20260509092644 7 80 3.2 6.4 0.05 0.43 0.43 99 1010.8
20260509091641 7 35 3.2 4.8 0.18 0.41 0.41 99 1010.9
20260509090640 7 29 3.2 4.8 0.30 0.38 0.38 99 1010.8
20260509085641 7 330 1.6 4.8 0.00 0.33 0.33 99 1010.8
20260509084640 7 16 3.2 4.8 0.00 0.33 0.33 99 1010.7
20260509083640 7 33 0.0 3.2 0.00 0.33 0.33 99 1010.7
20260509082639 7 35 3.2 4.8 0.00 0.33 0.33 99 1010.9
20260509081639 7 5 1.6 4.8 0.00 0.33 0.33 99 1010.9
20260509080634 7 35 0.0 4.8 0.05 0.33 0.33 99 1011.0
20260509075630 7 61 3.2 4.8 0.05 0.33 0.33 99 1011.2
20260509074630 7 27 3.2 4.8 0.05 0.30 0.30 99 1011.4